Location: Brad
(46.1333°N, 22.7833°E)
Time: 04:20:49
(UTC+00:00)

Cosmos 1869 - Pass Details

Date: 03 February 2023
Orbit: 510 x 549 km, 82.5° (Epoch: 29 March)

Event Time Altitude Azimuth Distance (km) Brightness Sun altitude
Rises 17:24:47 0° 349° (N) 2,662 6.9 -19.0°
Reaches altitude 10° 17:26:55 10° 348° (NNW) 1,776 6.0 -19.4°
Maximum altitude 17:30:49 77° 264° (W) 550 3.3 -20.0°
Drops below altitude 10° 17:34:44 10° 177° (S) 1,787 5.9 -20.7°
Sets 17:36:53 0° 176° (S) 2,681 6.8 -21.1°
